Location: Barnston
(51.8500°N, 0.4000°E)
Time: 12:15:45
(UTC+00:00)

USA 215 - Pass Details

Date: 26 September 2023
Orbit: 1098 x 1109 km, 123.0° (Epoch: 17 November)

Event Time Altitude Azimuth Distance (km) Brightness Sun altitude
Rises 03:26:12 0° 151° (SSE) 3,900 6.2 -22.2°
Reaches altitude 10° 03:28:53 10° 160° (SSE) 2,946 5.4 -21.8°
Maximum altitude 03:34:50 38° 226° (SW) 1,629 3.6 -21.0°
Enters shadow 03:35:44 36° 244° (WSW) 1,671 3.7 -20.9°
